Regional Weather Roundup
Issued by NWS San Diego, CA

Home | Current Version | Previous Version | Text Only | Print | Product List | Glossary On
Versions: 1 2 3 4 5 6 7 8 9 10 11 12 13 14 15 16 17 18 19 20 21 22 23 24 25 26 27 28 29 30 31 32 33 34 35 36 37 38 39 40 41 42 43 44 45 46 47 48 49 50
000
ASUS46 KSGX 251311
RWRSGX

SAN DIEGO HOURLY WEATHER ROUNDUP
NATIONAL WEATHER SERVICE SAN DIEGO CA
600 AM PDT SAT MAR 25 2017

NOTE: "FAIR" INDICATES FEW OR NO CLOUDS BELOW 12,000 FEET WITH NO
SIGNIFICANT WEATHER AND/OR OBSTRUCTIONS TO VISIBILITY.

CAZ042-043-060-061-PZZ750-775-251400-

GREATER SAN DIEGO AREA

CITY           SKY/WX    TMP DP  RH WIND       PRES   REMARKS
SAN DIEGO AP   MOCLDY    57  50  77 N3        30.13R
NATIONAL CITY    N/A     53  49  85 CALM      30.12R
CHULA VISTA      N/A     50  48  93 CALM      30.04R
IMPERIAL BEACH MOCLDY    50  46  86 CALM      30.12S
BROWN FIELD    CLEAR     49  46  90 CALM      30.11R
MIRAMAR MCAS   MOCLDY    51  45  79 CALM      30.12R
MONTGOMERY FLD MOCLDY    53  48  83 N3        30.12R

$$

NORTH SAN DIEGO COUNTY

CITY           SKY/WX    TMP DP  RH WIND       PRES   REMARKS
CAMP PENDLETON CLEAR     48  46  93 CALM      30.11F
OCEANSIDE AP   PTCLDY    48  47  96 CALM      30.11S
OCEANSIDE HBR    N/A     52  50  92 E5        30.14S
VISTA            N/A     49  44  83 CALM      30.10R
CARLSBAD       PTCLDY    53  51  93 CALM      30.11R
DEL MAR          N/A     53  52  95 CALM      30.14R
LA JOLLA SCRIP   N/A     57  54  91 NW3       30.11S
FALLBROOK        N/A     50  50 100 CALM      30.11R
ESCONDIDO        N/A     51  46  83 E2        30.13R
SAN MARCOS       N/A     51  47  84 CALM      30.13R
POWAY            N/A     47  44  88 CALM      30.15R

$$

EAST SAN DIEGO COUNTY

CITY           SKY/WX    TMP DP  RH WIND       PRES   REMARKS
RAMONA         MOCLDY    42  41  96 CALM      30.11R
SANTEE LAKES     N/A     47  45  91 CALM      30.12R
LA MESA          N/A     50  46  86 CALM      30.05R
JAMUL            N/A     45  43  92 CALM      30.12R
DESCANSO N       N/A     37  27  66 NE3       30.06S
CAMPO            N/A     39  38  96 NE5       30.06S

$$

ORANGE COUNTY AND THE LOS ANGELES BASIN

CITY           SKY/WX    TMP DP  RH WIND       PRES   REMARKS
JOHN WAYNE AP  CLOUDY    56  52  86 SE6       30.11S
LAKE FOREST FR   N/A     50  44  78 CALM      30.01S
HUNTINGTON BCH   N/A     56  54  92 CALM      30.13R
LOS ALAMITOS   CLOUDY    54  51  89 CALM      30.11S
FULLERTON      PTCLDY    56  52  86 CALM      30.10S
LONG BEACH     PTCLDY    56  51  84 CALM      30.11S
L.A. AP        PTCLDY    56  51  84 N3        30.11S
L.A. DOWNTOWN  CLEAR     56  51  84 CALM      30.11R

$$

THE INLAND EMPIRE

CITY           SKY/WX    TMP DP  RH WIND       PRES   REMARKS
CORONA         CLEAR     53  48  83 NW5       30.11S
CHINO          PTCLDY    49  45  86 W3        30.12S
ONTARIO        PTCLDY    50  45  83 W3        30.11R
SAN BERNARDINO FAIR      52  46  79 CALM      30.11S
RIVERSIDE AP   CLEAR     50  47  89 CALM      30.11R
MORENO VALLEY    N/A     47  47  97 CALM      28.21R
MARCH ARB      CLEAR     43  43 100 CALM      30.10R
HORSETHIEF CYN   N/A     47  41  81 CALM      30.11R
PERRIS           N/A     47  46  95 NE2       30.12S
HEMET EAST       N/A     47  39  74 CALM      30.13S
FRENCH VALLEY  FAIR      46  43  87 SE3       30.11S
TEMECULA         N/A     49  47  93 S2        30.18R

$$

SAN BERNARDINO AND RIVERSIDE COUNTY MOUNTAINS

CITY           SKY/WX    TMP DP  RH WIND       PRES   REMARKS
BIG BEAR AP    PTCLDY    36  28  75 W6        30.11R WCI  31
ANGELUS OAKS     N/A     42  31  64 CALM      29.98F
PINE COVE        N/A     40  17  38 NW2       30.02S

$$

SOUTHERN DESERT INCLUDING THE COACHELLA VALLEY

CITY           SKY/WX    TMP DP  RH WIND       PRES   REMARKS
PALM SPRINGS   CLEAR     62  44  51 S8        29.97F
PALM DESERT      N/A     60  46  59 CALM      29.87S
THERMAL        CLEAR     60  40  47 CALM      29.95S
BLYTHE         CLOUDY    61  37  41 E5        29.96S
IMPERIAL AP    MOCLDY    64  37  36 W7        29.97S
EL CENTRO NAS  PTCLDY    64  31  28 W8        29.99S
YUMA AZ        CLOUDY    60  45  57 CALM      29.97
MEXICALI       PTCLDY    59  39  47 W3        29.98

$$

UPPER DESERT

CITY           SKY/WX    TMP DP  RH WIND       PRES   REMARKS
VICTORVILLE AP PTCLDY    46  39  76 SW8       30.07R
HESPERIA         N/A     49  38  66 W3        30.15F
PALMDALE       CLEAR     49  42  77 W6        30.07S
LANCASTER      CLEAR     47  41  80 SW10      30.07S
EDWARDS AFB    PTCLDY    48  39  70 W10       30.04S
DAGGETT        CLEAR     54  40  59 W16       30.02S
29 PALMS N     CLEAR     59  31  34 NW10      30.06F
NEEDLES        CLOUDY    67  32  27 SW10      29.96S

$$

REGIONAL REPORTS

CITY           SKY/WX    TMP DP  RH WIND       PRES   REMARKS
SANTA BARBARA  MOCLDY    51  50  96 CALM      30.09F
SANDBERG       PTCLDY    45  37  73 CALM      30.10S
LAS VEGAS NV   CLOUDY    63  28  26 SW17G25   29.92S
PHOENIX AZ     MOCLDY    57  40  52 E7        29.99F
TIJUANA        PTCLDY    48  43  81 CALM      30.12
ENSENADA NW      N/A     56  32  40 NW15      30.07R

$$

OFFSHORE ISLANDS

CITY           SKY/WX    TMP DP  RH WIND       PRES   REMARKS
CATALINA ARPT  FOG       52  52 100 W16       30.11S VSB 1/4
SAN NICOLAS IS CLOUDY   N/A N/A N/A W13       30.12F

$$

MARINE AND OFFSHORE BUOY REPORTS

STATION/POSITION SKY/WX   TEMP    WIND        PRES    VSBY  SWELL
                          AIR SEA DIR/SP/G                  HT/PER/DIR
                          (F)     (DEG/KT/KT) (MB)    (MI)  (FT/S/D)
TANNER BANKS               59 59  290/ 14/ 17 1020.2          5/290/14
S CLEMENTE BASIN           58 60  300/ 14/ 16 1019.9          3/280/14
SAN NICOLAS IS.               57                N/A           5/300/11
SO. S. ROSA ISLA           57 57  280/  4/  6 1019.9          7/290/11
W. S. BARBARA CH           57 57   10/  2/  4 1019.4          8/280/11
M. S. BARBARA CH                                N/A           7/270/10
S. MONICA BASIN            58 59  280/ 12/ 16 1019.1F         3/210/14
S PEDRO CHANNEL               60                N/A           2/260/14
CMP PENDLETON NS              59                N/A           2/220/14
OCEANSIDE OFFSHR              61                N/A           2/200/13
TORREY PINES OTR              61                N/A           2/240/15
POINT LOMA SOUTH              62                N/A           3/270/13

$$




USA.gov is the U.S. government's official web portal to all federal, state and local government web resources and services.